Location: Erlenbrunn
(49.1717°N, 7.6142°E)
Time: 12:14:38
(UTC+00:00)

Meteor 1-25 Rocket - Pass Details

Date: 25 November 2020
Orbit: 837 x 890 km, 81.2° (Epoch: 25 January)

Event Time Altitude Azimuth Distance (km) Brightness Sun altitude
Rises 17:17:55 0° 349° (N) 3,413 7.3 -15.9°
Reaches altitude 10° 17:20:21 10° 352° (N) 2,479 6.6 -16.3°
Maximum altitude 17:25:58 71° 76° (ENE) 905 4.1 -17.2°
Drops below altitude 10° 17:31:37 10° 161° (SSE) 2,493 6.6 -18.1°
Sets 17:34:04 0° 163° (SSE) 3,434 7.3 -18.4°
